KG4QXL-2 Weather Reports


time (UTC)temp
C
wind
direction
speed
KPH
gust
KPH
rain 1hr
cm
rain 24hr
cm
rain mn
cm
humidity
%
barometer
mb
20260505025517 17 0.0 0.0 0.00 0.00 0.00 62 1005.7
20260505024516 18 0.0 0.0 0.00 0.00 0.00 62 1005.7
20260505023537 18 0.0 0.0 0.00 0.00 0.00 58 1005.5
20260505022517 18 0.0 0.0 0.00 0.00 0.00 55 1005.6
20260505021517 18 0.0 0.0 0.00 0.00 0.00 53 1005.5
20260505020517 19 0.0 0.0 0.00 0.00 0.00 53 1005.5
20260505015637 19 0.0 0.0 0.00 0.00 0.00 53 1005.3
20260505014517 19 0.0 0.0 0.00 0.00 0.00 52 1005.5
20260505013516 19 0.0 0.0 0.00 0.00 0.00 51 1005.2
20260505012517 20 0.0 0.0 0.00 0.00 0.00 50 1005.1
20260505011517 20 0.0 0.0 0.00 0.00 0.00 50 1004.9
20260505010517 20 0.0 0.0 0.00 0.00 0.00 50 1004.8
20260505005517 20 0.0 0.0 0.00 0.00 0.00 50 1004.8
20260505004517 20 0.0 0.0 0.00 0.00 0.00 50 1004.6
20260505003517 20 0.0 0.0 0.00 0.00 0.00 50 1004.7
20260505002517 20 0.0 0.0 0.00 0.00 0.00 49 1004.6
20260505001518 21 0.0 0.0 0.00 0.00 0.00 48 1004.4
20260505000517 21 0.0 0.0 0.00 0.00 0.00 47 1004.6
20260504235516 21 0.0 0.0 0.00 0.00 0.00 46 1004.5
20260504234517 22 0.0 0.0 0.00 0.00 0.00 44 1004.4
20260504233557 22 259 0.0 1.6 0.00 0.00 0.00 43 1004.5
20260504232517 22 259 1.6 3.2 0.00 0.00 0.00 42 1004.4
20260504231517 23 259 1.6 1.6 0.00 0.00 0.00 40 1004.2
20260504230517 23 269 0.0 1.6 0.00 0.00 0.00 40 1004.3
20260504225517 23 267 0.0 3.2 0.00 0.00 0.00 40 1004.3
20260504224517 23 260 1.6 4.8 0.00 0.00 0.00 39 1004.2
20260504223517 23 261 0.0 1.6 0.00 0.00 0.00 39 1004.1
20260504222517 23 261 1.6 3.2 0.00 0.00 0.00 37 1004.3
20260504221537 23 258 1.6 3.2 0.00 0.00 0.00 39 1004.2
20260504220517 23 254 1.6 3.2 0.00 0.00 0.00 39 1004.1
20260504215516 23 227 0.0 1.6 0.00 0.00 0.00 38 1004.3
20260504214517 23 262 1.6 3.2 0.00 0.00 0.00 37 1004.2
20260504213517 23 267 1.6 3.2 0.00 0.00 0.00 37 1004.4
20260504212517 24 267 1.6 4.8 0.00 0.00 0.00 36 1004.4
20260504211517 24 260 1.6 4.8 0.00 0.00 0.00 36 1004.3
20260504210516 23 254 1.6 4.8 0.00 0.00 0.00 38 1004.2
20260504205517 23 268 0.0 1.6 0.00 0.00 0.00 39 1004.2
20260504204517 23 0.0 0.0 0.00 0.00 0.00 37 1004.3
20260504203517 23 255 0.0 3.2 0.00 0.00 0.00 36 1004.3
20260504202517 24 351 0.0 1.6 0.00 0.00 0.00 36 1004.5
20260504201537 23 255 1.6 4.8 0.00 0.00 0.00 34 1004.5
20260504200517 23 266 1.6 3.2 0.00 0.00 0.00 34 1004.6
20260504195517 23 267 1.6 4.8 0.00 0.00 0.00 34 1004.7
20260504194517 23 266 0.0 3.2 0.00 0.00 0.00 35 1004.9
20260504193517 23 270 0.0 1.6 0.00 0.00 0.00 36 1004.9
20260504192517 23 338 0.0 3.2 0.00 0.00 0.00 37 1005.1
20260504191537 23 256 1.6 1.6 0.00 0.00 0.00 35 1005.3
20260504190537 23 253 1.6 3.2 0.00 0.00 0.00 36 1005.5
20260504185517 23 261 1.6 3.2 0.00 0.00 0.00 36 1005.6
20260504184537 23 251 1.6 3.2 0.00 0.00 0.00 36 1005.8
20260504183517 23 261 1.6 3.2 0.00 0.00 0.00 37 1006.0
20260504182517 22 220 0.0 1.6 0.00 0.00 0.00 39 1006.2
20260504181517 22 269 0.0 3.2 0.00 0.00 0.00 37 1006.4
20260504180516 22 271 1.6 3.2 0.00 0.00 0.00 37 1006.4
20260504175537 22 240 0.0 1.6 0.00 0.00 0.00 40 1006.4
20260504174516 22 23 1.6 4.8 0.00 0.00 0.00 39 1006.6
20260504173537 22 249 0.0 1.6 0.00 0.00 0.00 38 1006.8
20260504172517 21 126 1.6 4.8 0.00 0.00 0.00 39 1006.9
20260504171516 21 272 1.6 3.2 0.00 0.00 0.00 38 1007.1
20260504170517 21 265 1.6 4.8 0.00 0.00 0.00 38 1007.2
20260504150537 18 258 0.0 1.6 0.00 0.00 0.00 44 1008.4
20260504140517 15 0.0 0.0 0.00 0.00 0.00 55 1008.6
20260504130517 12 0.0 0.0 0.00 0.00 0.00 64 1009.2
20260504110517 8 0.0 0.0 0.00 0.00 0.00 82 1009.8
20260504100517 8 0.0 0.0 0.00 0.00 0.00 79 1009.7
20260504081517 8 0.0 0.0 0.00 0.00 0.00 86 1010.0
20260504080517 8 0.0 0.0 0.00 0.00 0.00 86 1010.0
20260504050517 7 0.0 0.0 0.00 0.00 0.00 87 1010.2
20260504045517 7 0.0 0.0 0.00 0.00 0.00 87 1010.1
20260504044517 7 0.0 0.0 0.00 0.00 0.00 87 1010.2
20260504043517 7 0.0 0.0 0.00 0.00 0.00 87 1010.1
20260504042517 6 0.0 0.0 0.00 0.00 0.00 88 1010.0
20260504041537 6 0.0 0.0 0.00 0.00 0.00 89 1009.9
20260504040517 6 0.0 0.0 0.00 0.00 0.00 88 1009.8
20260504035516 6 0.0 0.0 0.00 0.00 0.00 87 1010.1
20260504034537 6 0.0 0.0 0.00 0.00 0.00 87 1010.2
20260504033536 7 0.0 0.0 0.00 0.00 0.00 87 1010.1
20260504032516 7 0.0 0.0 0.00 0.00 0.00 86 1010.1
20260504031517 7 0.0 0.0 0.00 0.00 0.00 84 1009.9
20260504030517 7 0.0 0.0 0.00 0.00 0.00 83 1009.9